Pompano Beach, FL

7:01 PM EDT on July 26, 2016 (GMT -0400)
Pompano Beach

Weather History for KPMP - November, 2011

Change the Weather History Date:

Wednesday, November 23, 2011

  Actual Average Record
Temperature  
Mean Temperature 78 °F -  
Max Temperature 82 °F 80 °F 87 °F (1948)
Min Temperature 73 °F 62 °F 46 °F (1956)
Cooling Degree Days 12    
Growing Degree Days 28 (Base 50)    
Moisture  
Dew Point 66 °F    
Average Humidity 68    
Maximum Humidity 84    
Minimum Humidity 49    
Precipitation  
Precipitation 0.00 in - - ()
Sea Level Pressure  
Sea Level Pressure 30.07 in    
Wind  
Wind Speed 7 mph (SW)    
Max Wind Speed 13 mph    
Max Gust Speed -    
Visibility 10 miles    
Events      
Averages and records for this station are not official NWS values.
T = Trace of Precipitation, MM = Missing Value Source: NWS Daily Summary

Daily Weather History Graph

Daily Weather History Graph

Search for Another Location

Airport or City:

Trip Planner

Search our weather history database for the weather conditions in past years. The results will help you decide how hot, cold, wet, or windy it might be!

Date:

Astronomy

Nov. 23, 2011 Rise Set
Actual Time 6:44 AM EST 5:28 PM EST
Civil Twilight 6:20 AM EST 5:53 PM EST
Nautical Twilight 5:51 AM EST 6:21 PM EST
Astronomical Twilight 5:24 AM EST 6:49 PM EST
Moon 4:51 AM EST (11/23) 4:06 PM EST (11/23)
Length of Visible Light 11h 33m
Length of Day
10h 43m
Waning Crescent, 4% of the Moon is Illuminated
Nov 23
Waning Crescent
Nov 25
New
Dec 2
First Quarter
Dec 10
Full
Dec 17
Last Quarter

Hourly Weather History & Observations

Time (EST) Temp. Heat Index Dew Point Humidity Pressure Visibility Wind Dir Wind Speed Gust Speed Precip Events Conditions
1:53 AM 77.0 °F - 66.9 °F 71% 30.10 in 10.0 mi SE 12.7 mph - N/A   Scattered Clouds
2:53 AM 75.9 °F - 68.0 °F 76% 30.10 in 10.0 mi SSE 6.9 mph - N/A   Mostly Cloudy
4:53 AM 75.0 °F - 66.9 °F 76% 30.09 in 10.0 mi SSE 4.6 mph - N/A   Partly Cloudy
5:53 AM 73.9 °F - 66.0 °F 76% 30.10 in 10.0 mi Calm Calm - N/A   Partly Cloudy
7:53 AM 73.9 °F - 68.0 °F 82% 30.11 in 10.0 mi Calm Calm - N/A   Partly Cloudy
8:53 AM 78.1 °F - 66.9 °F 68% 30.12 in 10.0 mi SW 3.5 mph - N/A   Clear
9:53 AM 80.1 °F 82.1 °F 66.0 °F 62% 30.13 in 10.0 mi South 3.5 mph - N/A   Partly Cloudy
10:53 AM 82.0 °F 83.8 °F 64.9 °F 56% 30.11 in 10.0 mi SSW 5.8 mph - N/A   Partly Cloudy
11:53 AM 82.9 °F 84.0 °F 63.0 °F 51% 30.09 in 10.0 mi West 6.9 mph - N/A   Clear
12:53 PM 82.9 °F 84.0 °F 63.0 °F 51% 30.06 in 10.0 mi West 8.1 mph - N/A   Scattered Clouds
1:53 PM 82.9 °F 83.7 °F 62.1 °F 49% 30.04 in 10.0 mi West 12.7 mph - N/A   Scattered Clouds
3:53 PM 82.9 °F 84.4 °F 64.0 °F 53% 30.01 in 10.0 mi Variable 5.8 mph - N/A   Clear
4:53 PM 82.0 °F 83.4 °F 64.0 °F 54% 30.01 in 10.0 mi WSW 6.9 mph - N/A   Partly Cloudy
5:53 PM 78.1 °F - 69.1 °F 74% 30.01 in 10.0 mi SSE 6.9 mph - N/A   Clear
6:53 PM 78.1 °F - 68.0 °F 71% 30.03 in 10.0 mi South 5.8 mph - N/A   Scattered Clouds
7:53 PM 78.1 °F - 68.0 °F 71% 30.05 in 10.0 mi South 4.6 mph - N/A   Mostly Cloudy
8:53 PM 77.0 °F - 69.1 °F 76% 30.05 in 10.0 mi SW 6.9 mph - N/A   Clear
10:53 PM 73.9 °F - 68.0 °F 82% 30.06 in 10.0 mi West 5.8 mph - N/A   Clear
11:53 PM 73.0 °F - 68.0 °F 84% 30.06 in 10.0 mi WNW 9.2 mph - N/A   Clear